KRE29 SPQU-SCEL

Flight info

Callsign KRE29
Flight time 2h 31m
Altitude 31000
Route GAVAR DCT ARI UV204 VADIX UT295 NENAT UQ803 SIMOK ANDES1
Aircraft B722/M-SDFGHRWY/C

Departure

Time 2026-05-05 23:33
Airport Rodríguez Ballón International Airport (SPQU)

Arrival

Time 2026-05-06 02:04
Airport Comodoro Arturo Merino Benítez International Airport (SCEL)
Time Latitude Longitude Altitude Speed Heading
2026-05-05 23:12 -16.34843 -71.56841 8402 ft 0 kts 115°
2026-05-05 23:26 -16.34845 -71.56834 8402 ft 2 kts 100°
2026-05-05 23:26 -16.34842 -71.56801 8404 ft 7 kts 70°
2026-05-05 23:26 -16.34807 -71.56748 8406 ft 10 kts 45°
2026-05-05 23:26 -16.34753 -71.56739 8407 ft 8 kts 339°
2026-05-05 23:27 -16.34695 -71.56777 8405 ft 12 kts 323°
2026-05-05 23:27 -16.34620 -71.56833 8402 ft 14 kts 325°
2026-05-05 23:27 -16.34532 -71.56895 8399 ft 16 kts 324°
2026-05-05 23:27 -16.34435 -71.56969 8395 ft 18 kts 324°
2026-05-05 23:28 -16.34329 -71.57050 8391 ft 20 kts 321°
2026-05-05 23:28 -16.34234 -71.57125 8387 ft 10 kts 340°
2026-05-05 23:28 -16.34173 -71.57114 8386 ft 9 kts 58°
2026-05-05 23:28 -16.34164 -71.57057 8389 ft 8 kts 92°
2026-05-05 23:29 -16.34167 -71.56991 8392 ft 12 kts 91°
2026-05-05 23:29 -16.34173 -71.56895 8396 ft 15 kts 95°
2026-05-05 23:29 -16.34179 -71.56774 8402 ft 18 kts 92°
2026-05-05 23:29 -16.34186 -71.56632 8409 ft 21 kts 92°
2026-05-05 23:30 -16.34195 -71.56469 8417 ft 24 kts 93°
2026-05-05 23:30 -16.34205 -71.56289 8427 ft 26 kts 93°
2026-05-05 23:30 -16.34216 -71.56094 8436 ft 28 kts 93°
2026-05-05 23:30 -16.34226 -71.55895 8446 ft 24 kts 92°
2026-05-05 23:31 -16.34191 -71.55773 8452 ft 15 kts 57°
2026-05-05 23:31 -16.34138 -71.55733 8455 ft 6 kts 330°
2026-05-05 23:31 -16.34125 -71.55790 8452 ft 15 kts 272°
2026-05-05 23:31 -16.34112 -71.56039 8439 ft 59 kts 274°
2026-05-05 23:32 -16.34079 -71.56640 8407 ft 106 kts 273°
2026-05-05 23:32 -16.34030 -71.57548 8367 ft 143 kts 273°
2026-05-05 23:32 -16.33954 -71.58691 8334 ft 170 kts 275°
2026-05-05 23:32 -16.33848 -71.59963 8524 ft 179 kts 278°
2026-05-05 23:33 -16.33753 -71.61261 8892 ft 181 kts 273°
2026-05-05 23:33 -16.33736 -71.62593 9146 ft 194 kts 271°
2026-05-05 23:33 -16.33715 -71.64023 9488 ft 200 kts 273°
2026-05-05 23:33 -16.33622 -71.65489 9786 ft 207 kts 275°
2026-05-05 23:34 -16.33523 -71.67032 10025 ft 221 kts 274°
2026-05-05 23:34 -16.33490 -71.68682 10213 ft 239 kts 260°
2026-05-05 23:34 -16.34268 -71.70249 10421 ft 257 kts 223°
2026-05-05 23:34 -16.35764 -71.71371 10661 ft 276 kts 214°
2026-05-05 23:35 -16.37423 -71.72534 10887 ft 298 kts 214°
2026-05-05 23:35 -16.39136 -71.73733 11659 ft 297 kts 214°
2026-05-05 23:35 -16.40838 -71.74921 12334 ft 301 kts 213°
2026-05-05 23:35 -16.42710 -71.75920 12961 ft 306 kts 198°
2026-05-05 23:36 -16.44804 -71.76326 13683 ft 309 kts 181°
2026-05-05 23:36 -16.46947 -71.76092 14330 ft 312 kts 164°
2026-05-05 23:36 -16.48951 -71.75226 14976 ft 313 kts 148°
2026-05-05 23:36 -16.50683 -71.73854 15598 ft 314 kts 138°
2026-05-05 23:37 -16.52142 -71.72165 16206 ft 312 kts 125°
2026-05-05 23:37 -16.53328 -71.70252 16530 ft 315 kts 122°
2026-05-05 23:37 -16.54536 -71.68355 16667 ft 320 kts 126°
2026-05-05 23:37 -16.55919 -71.66545 16834 ft 319 kts 129°
2026-05-05 23:38 -16.57352 -71.64767 16995 ft 321 kts 128°
2026-05-05 23:38 -16.58732 -71.62935 17180 ft 321 kts 126°
2026-05-05 23:38 -16.60087 -71.61075 17366 ft 323 kts 127°
2026-05-05 23:38 -16.61471 -71.59221 17609 ft 327 kts 128°
2026-05-05 23:39 -16.62886 -71.57362 18232 ft 326 kts 128°
2026-05-05 23:39 -16.64289 -71.55499 18803 ft 328 kts 127°
2026-05-05 23:39 -16.65680 -71.53636 19233 ft 332 kts 127°
2026-05-05 23:39 -16.67102 -71.51725 19683 ft 335 kts 127°
2026-05-05 23:40 -16.68535 -71.49798 20134 ft 338 kts 127°
2026-05-05 23:40 -16.69991 -71.47856 20577 ft 341 kts 127°
2026-05-05 23:40 -16.71461 -71.45901 21037 ft 344 kts 127°
2026-05-05 23:40 -16.72944 -71.43921 21491 ft 348 kts 126°
2026-05-05 23:41 -16.74437 -71.41926 21899 ft 351 kts 126°
2026-05-05 23:41 -16.75946 -71.39910 22337 ft 354 kts 126°
2026-05-05 23:41 -16.77469 -71.37878 22773 ft 357 kts 126°
2026-05-05 23:41 -16.78989 -71.35861 23200 ft 360 kts 126°
2026-05-05 23:42 -16.80546 -71.33798 23628 ft 363 kts 126°
2026-05-05 23:42 -16.82106 -71.31711 24002 ft 366 kts 126°
2026-05-05 23:42 -16.83674 -71.29603 24357 ft 369 kts 126°
2026-05-05 23:42 -16.85255 -71.27486 24734 ft 371 kts 126°
2026-05-05 23:43 -16.86851 -71.25357 25033 ft 374 kts 127°
2026-05-05 23:43 -16.88456 -71.23210 25367 ft 376 kts 127°
2026-05-05 23:43 -16.90045 -71.21076 25691 ft 378 kts 127°
2026-05-05 23:43 -16.91666 -71.18903 26021 ft 381 kts 127°
2026-05-05 23:44 -16.93301 -71.16717 26337 ft 383 kts 127°
2026-05-05 23:44 -16.94946 -71.14513 26677 ft 385 kts 127°
2026-05-05 23:44 -16.96654 -71.12352 26986 ft 388 kts 135°
2026-05-05 23:44 -16.98774 -71.10603 27257 ft 390 kts 147°
2026-05-05 23:45 -17.01121 -71.09170 27570 ft 392 kts 153°
2026-05-05 23:45 -17.03589 -71.07934 27881 ft 394 kts 155°
2026-05-05 23:45 -17.06028 -71.06706 28181 ft 396 kts 153°
2026-05-05 23:45 -17.08461 -71.05339 28473 ft 398 kts 151°
2026-05-05 23:46 -17.10895 -71.03946 28743 ft 400 kts 152°
2026-05-05 23:46 -17.13373 -71.02607 29031 ft 402 kts 154°
2026-05-05 23:46 -17.15870 -71.01281 29326 ft 404 kts 153°
2026-05-05 23:46 -17.18371 -70.99915 29545 ft 408 kts 152°
2026-05-05 23:47 -17.20882 -70.98520 29796 ft 410 kts 153°
2026-05-05 23:47 -17.23413 -70.97134 30058 ft 411 kts 153°
2026-05-05 23:47 -17.25922 -70.95774 30298 ft 413 kts 153°
2026-05-05 23:47 -17.28478 -70.94380 30515 ft 415 kts 153°
2026-05-05 23:48 -17.31044 -70.92970 30718 ft 417 kts 153°
2026-05-05 23:48 -17.33622 -70.91556 30926 ft 419 kts 153°
2026-05-05 23:48 -17.36212 -70.90142 31086 ft 422 kts 153°
2026-05-05 23:48 -17.38820 -70.88716 31278 ft 424 kts 153°
2026-05-05 23:49 -17.44133 -70.85804 31126 ft 444 kts 153°
2026-05-05 23:49 -17.46854 -70.84312 31005 ft 454 kts 153°
2026-05-05 23:49 -17.49667 -70.82770 31067 ft 458 kts 153°
2026-05-05 23:50 -17.55399 -70.79627 31088 ft 473 kts 153°
2026-05-05 23:50 -17.61331 -70.76368 31092 ft 489 kts 153°
2026-05-05 23:51 -17.67451 -70.73007 31093 ft 503 kts 153°
2026-05-05 23:51 -17.73635 -70.69605 31065 ft 506 kts 153°
2026-05-05 23:52 -17.79869 -70.66176 31063 ft 506 kts 153°
2026-05-05 23:52 -17.86100 -70.62744 31035 ft 506 kts 153°
2026-05-05 23:53 -17.92289 -70.59333 31037 ft 506 kts 153°
2026-05-05 23:53 -17.98518 -70.55897 31011 ft 506 kts 153°
2026-05-05 23:54 -18.04736 -70.52465 31007 ft 503 kts 153°
2026-05-05 23:54 -18.10925 -70.49045 30998 ft 504 kts 153°
2026-05-05 23:55 -18.17147 -70.45606 30997 ft 505 kts 153°
2026-05-05 23:55 -18.23325 -70.42187 30996 ft 505 kts 153°
2026-05-05 23:56 -18.29547 -70.38742 30998 ft 505 kts 153°
2026-05-05 23:56 -18.35834 -70.35459 30991 ft 503 kts 162°
2026-05-05 23:57 -18.42655 -70.34015 30998 ft 500 kts 176°
2026-05-05 23:57 -18.49546 -70.33620 30998 ft 499 kts 179°
2026-05-05 23:58 -18.56470 -70.32935 30998 ft 500 kts 176°
2026-05-05 23:58 -18.63401 -70.32376 31001 ft 499 kts 179°
2026-05-05 23:59 -18.70328 -70.31774 31003 ft 500 kts 177°
2026-05-05 23:59 -18.77215 -70.31172 31008 ft 500 kts 178°
2026-05-06 00:00 -18.84158 -70.30588 31009 ft 501 kts 177°
2026-05-06 00:00 -18.91100 -70.29975 31012 ft 500 kts 178°
2026-05-06 00:01 -18.98041 -70.29388 31015 ft 500 kts 178°
2026-05-06 00:01 -19.04937 -70.28784 31020 ft 500 kts 178°
2026-05-06 00:02 -19.11885 -70.28189 31019 ft 501 kts 178°
2026-05-06 00:02 -19.18829 -70.27585 31015 ft 501 kts 178°
2026-05-06 00:03 -19.25780 -70.26984 31017 ft 501 kts 178°
2026-05-06 00:03 -19.32728 -70.26380 31020 ft 501 kts 178°
2026-05-06 00:04 -19.39632 -70.25803 31018 ft 501 kts 179°
2026-05-06 00:04 -19.46594 -70.25406 31017 ft 501 kts 180°
2026-05-06 00:05 -19.57028 -70.24711 31016 ft 501 kts 180°
2026-05-06 00:06 -19.63942 -70.24296 31018 ft 501 kts 179°
2026-05-06 00:06 -19.70911 -70.23832 31022 ft 504 kts 179°
2026-05-06 00:07 -19.77915 -70.23397 31022 ft 504 kts 179°
2026-05-06 00:07 -19.84916 -70.22943 31022 ft 504 kts 179°
2026-05-06 00:08 -19.91915 -70.22497 31024 ft 504 kts 179°
2026-05-06 00:08 -19.98867 -70.22048 31022 ft 504 kts 179°
2026-05-06 00:09 -20.05860 -70.21598 31019 ft 503 kts 180°
2026-05-06 00:09 -20.12851 -70.21158 31019 ft 503 kts 180°
2026-05-06 00:10 -20.19793 -70.20705 31016 ft 503 kts 180°
2026-05-06 00:10 -20.26782 -70.20261 31017 ft 503 kts 180°
2026-05-06 00:11 -20.33749 -70.19805 31025 ft 501 kts 180°
2026-05-06 00:11 -20.40720 -70.19365 31000 ft 502 kts 180°
2026-05-06 00:12 -20.47690 -70.18909 30997 ft 502 kts 180°
2026-05-06 00:12 -20.54618 -70.18467 30998 ft 502 kts 180°
2026-05-06 00:13 -20.61564 -70.18535 30997 ft 497 kts 189°
2026-05-06 00:13 -20.68434 -70.19455 31004 ft 499 kts 190°
2026-05-06 00:14 -20.75378 -70.19964 31018 ft 500 kts 187°
2026-05-06 00:14 -20.82273 -70.20681 31022 ft 502 kts 189°
2026-05-06 00:15 -20.89244 -70.21308 31022 ft 503 kts 187°
2026-05-06 00:15 -20.96213 -70.21957 30998 ft 502 kts 189°
2026-05-06 00:16 -21.03174 -70.22641 31020 ft 503 kts 188°
2026-05-06 00:16 -21.10100 -70.23246 31018 ft 502 kts 188°
2026-05-06 00:17 -21.17060 -70.23928 31017 ft 503 kts 188°
2026-05-06 00:17 -21.24033 -70.24564 31014 ft 503 kts 188°
2026-05-06 00:18 -21.30997 -70.25229 31028 ft 502 kts 189°
2026-05-06 00:18 -21.37914 -70.25867 31026 ft 502 kts 189°
2026-05-06 00:19 -21.44870 -70.26533 31023 ft 502 kts 189°
2026-05-06 00:19 -21.51831 -70.27191 31023 ft 502 kts 189°
2026-05-06 00:20 -21.58795 -70.27846 31009 ft 501 kts 189°
2026-05-06 00:20 -21.65683 -70.28499 31012 ft 500 kts 189°
2026-05-06 00:21 -21.72624 -70.29155 31009 ft 501 kts 189°
2026-05-06 00:21 -21.79566 -70.29812 31015 ft 501 kts 189°
2026-05-06 00:22 -21.86507 -70.30471 31014 ft 501 kts 189°
2026-05-06 00:22 -21.93384 -70.31120 31024 ft 497 kts 189°
2026-05-06 00:23 -22.00290 -70.31720 31021 ft 498 kts 189°
2026-05-06 00:23 -22.07199 -70.32334 31025 ft 498 kts 189°
2026-05-06 00:24 -22.14113 -70.32943 31022 ft 499 kts 189°
2026-05-06 00:24 -22.20981 -70.33552 31026 ft 498 kts 189°
2026-05-06 00:25 -22.27872 -70.34161 31019 ft 497 kts 189°
2026-05-06 00:25 -22.34764 -70.34773 31020 ft 497 kts 189°
2026-05-06 00:26 -22.41654 -70.35383 31020 ft 497 kts 189°
2026-05-06 00:26 -22.48545 -70.35996 31020 ft 497 kts 189°
2026-05-06 00:27 -22.55375 -70.36600 31023 ft 494 kts 190°
2026-05-06 00:27 -22.62227 -70.37213 31022 ft 494 kts 190°
2026-05-06 00:28 -22.69090 -70.37821 31022 ft 495 kts 190°
2026-05-06 00:28 -22.75945 -70.38435 31019 ft 495 kts 190°
2026-05-06 00:29 -22.82759 -70.39041 31030 ft 494 kts 190°
2026-05-06 00:29 -22.89578 -70.39651 31018 ft 491 kts 191°
2026-05-06 00:30 -22.96397 -70.40261 31019 ft 492 kts 190°
2026-05-06 00:30 -23.03221 -70.40873 31023 ft 492 kts 191°
2026-05-06 00:30 -23.06611 -70.41422 35728 ft 498 kts 193°
2026-05-06 00:31 -23.10106 -70.41701 35633 ft 509 kts 189°
2026-05-06 00:31 -23.17211 -70.41999 35093 ft 514 kts 191°
2026-05-06 00:31 -23.20759 -70.42404 34678 ft 511 kts 193°
2026-05-06 00:32 -23.24264 -70.42831 34269 ft 504 kts 192°
2026-05-06 00:32 -23.27751 -70.43096 33815 ft 500 kts 189°
2026-05-06 00:32 -23.31207 -70.43318 33319 ft 495 kts 190°
2026-05-06 00:32 -23.34623 -70.43641 32832 ft 491 kts 192°
2026-05-06 00:33 -23.37977 -70.44007 32370 ft 493 kts 191°
2026-05-06 00:33 -23.41402 -70.44320 31907 ft 494 kts 190°
2026-05-06 00:33 -23.44815 -70.44571 31471 ft 491 kts 188°
2026-05-06 00:33 -23.48241 -70.44467 31046 ft 495 kts 179°
2026-05-06 00:34 -23.51642 -70.43960 31023 ft 495 kts 175°
2026-05-06 00:34 -23.58435 -70.42438 31025 ft 499 kts 174°
2026-05-06 00:35 -23.65278 -70.41268 31029 ft 498 kts 175°
2026-05-06 00:35 -23.72062 -70.39889 31028 ft 499 kts 174°
2026-05-06 00:36 -23.78894 -70.38621 31017 ft 497 kts 175°
2026-05-06 00:36 -23.85716 -70.37297 31024 ft 498 kts 174°
2026-05-06 00:37 -23.92535 -70.35991 31011 ft 497 kts 175°
2026-05-06 00:37 -23.99311 -70.34692 31023 ft 498 kts 175°
2026-05-06 00:38 -24.06133 -70.33373 31014 ft 498 kts 175°
2026-05-06 00:38 -24.12958 -70.32065 31015 ft 498 kts 175°
2026-05-06 00:39 -24.19783 -70.30744 31025 ft 498 kts 175°
2026-05-06 00:39 -24.26556 -70.29439 31029 ft 498 kts 175°
2026-05-06 00:40 -24.33389 -70.28118 31014 ft 501 kts 175°
2026-05-06 00:40 -24.40258 -70.26790 31017 ft 501 kts 175°
2026-05-06 00:41 -24.47118 -70.25461 31015 ft 501 kts 175°
2026-05-06 00:41 -24.53933 -70.24139 31015 ft 500 kts 175°
2026-05-06 00:42 -24.60790 -70.22808 31038 ft 500 kts 175°
2026-05-06 00:42 -24.67673 -70.21472 31019 ft 503 kts 175°
2026-05-06 00:43 -24.74560 -70.20130 31014 ft 502 kts 175°
2026-05-06 00:43 -24.81387 -70.19552 31024 ft 490 kts 188°
2026-05-06 00:44 -24.88139 -70.20253 31030 ft 487 kts 193°
2026-05-06 00:44 -24.94900 -70.20843 31025 ft 488 kts 189°
2026-05-06 00:45 -25.01654 -70.21417 31026 ft 486 kts 192°
2026-05-06 00:45 -25.08359 -70.22047 31019 ft 487 kts 190°
2026-05-06 00:46 -25.15117 -70.22610 31023 ft 486 kts 191°
2026-05-06 00:46 -25.21860 -70.23239 31027 ft 485 kts 191°
2026-05-06 00:47 -25.28581 -70.23815 31033 ft 485 kts 191°
2026-05-06 00:47 -25.35312 -70.24430 31037 ft 485 kts 191°
2026-05-06 00:48 -25.41994 -70.25014 31038 ft 485 kts 191°
2026-05-06 00:48 -25.48718 -70.25621 31042 ft 485 kts 191°
2026-05-06 00:49 -25.55430 -70.26215 31050 ft 483 kts 192°
2026-05-06 00:49 -25.62125 -70.26819 31058 ft 483 kts 192°
2026-05-06 00:50 -25.68784 -70.27411 31053 ft 483 kts 192°
2026-05-06 00:50 -25.75484 -70.28014 31057 ft 483 kts 192°
2026-05-06 00:51 -25.82187 -70.28614 31061 ft 483 kts 192°
2026-05-06 00:51 -25.88882 -70.29215 31070 ft 483 kts 192°
2026-05-06 00:52 -25.95576 -70.29818 31066 ft 483 kts 192°
2026-05-06 00:52 -26.02228 -70.30416 31064 ft 483 kts 192°
2026-05-06 00:53 -26.08920 -70.31021 31077 ft 483 kts 192°
2026-05-06 00:53 -26.15606 -70.31636 31068 ft 481 kts 192°
2026-05-06 00:54 -26.22289 -70.32249 31071 ft 482 kts 192°
2026-05-06 00:54 -26.28925 -70.32857 31072 ft 482 kts 192°
2026-05-06 00:55 -26.35608 -70.33473 31068 ft 482 kts 192°
2026-05-06 00:55 -26.42281 -70.34087 31064 ft 480 kts 193°
2026-05-06 00:56 -26.48932 -70.34701 31065 ft 480 kts 193°
2026-05-06 00:56 -26.55598 -70.35314 31052 ft 480 kts 193°
2026-05-06 00:57 -26.62216 -70.35928 31045 ft 481 kts 193°
2026-05-06 00:57 -26.68887 -70.36541 31062 ft 479 kts 193°
2026-05-06 00:58 -26.75510 -70.37157 31062 ft 477 kts 193°
2026-05-06 00:58 -26.82143 -70.37769 31057 ft 479 kts 193°
2026-05-06 00:59 -26.88731 -70.38384 31059 ft 478 kts 193°
2026-05-06 00:59 -26.95356 -70.38999 31055 ft 478 kts 193°
2026-05-06 01:00 -27.01983 -70.39614 31058 ft 478 kts 193°
2026-05-06 01:00 -27.08613 -70.40236 31059 ft 478 kts 193°
2026-05-06 01:01 -27.15197 -70.40849 31054 ft 478 kts 193°
2026-05-06 01:01 -27.21825 -70.41471 31057 ft 478 kts 193°
2026-05-06 01:02 -27.28454 -70.42089 31061 ft 477 kts 193°
2026-05-06 01:02 -27.35062 -70.42709 31073 ft 476 kts 193°
2026-05-06 01:03 -27.41672 -70.43332 31063 ft 477 kts 193°
2026-05-06 01:03 -27.48243 -70.43946 31063 ft 477 kts 193°
2026-05-06 01:04 -27.54851 -70.44570 31078 ft 477 kts 194°
2026-05-06 01:04 -27.61459 -70.45191 31067 ft 477 kts 194°
2026-05-06 01:05 -27.68067 -70.45815 31070 ft 477 kts 194°
2026-05-06 01:05 -27.74639 -70.46436 31064 ft 477 kts 194°
2026-05-06 01:06 -27.81250 -70.47060 31069 ft 477 kts 194°
2026-05-06 01:06 -27.87868 -70.47687 31078 ft 477 kts 194°
2026-05-06 01:07 -27.94484 -70.48315 31068 ft 477 kts 194°
2026-05-06 01:07 -28.01054 -70.48938 31071 ft 477 kts 194°
2026-05-06 01:08 -28.07672 -70.49567 31074 ft 477 kts 194°
2026-05-06 01:08 -28.14297 -70.50196 31060 ft 477 kts 194°
2026-05-06 01:09 -28.20909 -70.50827 31052 ft 478 kts 194°
2026-05-06 01:09 -28.27484 -70.51453 31051 ft 477 kts 194°
2026-05-06 01:10 -28.34103 -70.52087 31045 ft 477 kts 194°
2026-05-06 01:10 -28.40725 -70.52717 31051 ft 478 kts 194°
2026-05-06 01:11 -28.47349 -70.53351 31040 ft 478 kts 194°
2026-05-06 01:11 -28.53928 -70.53981 31030 ft 479 kts 194°
2026-05-06 01:12 -28.60604 -70.54591 31048 ft 480 kts 194°
2026-05-06 01:12 -28.67253 -70.55224 31039 ft 479 kts 194°
2026-05-06 01:13 -28.73896 -70.55841 31015 ft 478 kts 193°
2026-05-06 01:13 -28.80483 -70.56462 31029 ft 479 kts 193°
2026-05-06 01:14 -28.90447 -70.57400 31029 ft 479 kts 193°
2026-05-06 01:14 -28.97083 -70.58027 31047 ft 479 kts 193°
2026-05-06 01:15 -29.03710 -70.58681 31030 ft 478 kts 193°
2026-05-06 01:15 -29.10301 -70.59308 31055 ft 479 kts 193°
2026-05-06 01:16 -29.16936 -70.59955 31052 ft 478 kts 193°
2026-05-06 01:16 -29.23573 -70.60595 31086 ft 479 kts 193°
2026-05-06 01:17 -29.30211 -70.61243 31041 ft 478 kts 193°
2026-05-06 01:17 -29.36841 -70.61886 31039 ft 478 kts 193°
2026-05-06 01:18 -29.43428 -70.62529 31045 ft 478 kts 194°
2026-05-06 01:18 -29.50064 -70.63172 31041 ft 479 kts 193°
2026-05-06 01:19 -29.56689 -70.63822 31041 ft 478 kts 194°
2026-05-06 01:19 -29.63318 -70.64469 31041 ft 478 kts 194°
2026-05-06 01:20 -29.69910 -70.65114 31040 ft 478 kts 194°
2026-05-06 01:20 -29.76542 -70.65764 31038 ft 478 kts 194°
2026-05-06 01:21 -29.83171 -70.66413 31038 ft 479 kts 194°
2026-05-06 01:21 -29.88693 -70.66957 31034 ft 480 kts 194°
2026-05-06 01:22 -29.96399 -70.67707 31040 ft 476 kts 193°
2026-05-06 01:22 -30.03027 -70.68370 31031 ft 478 kts 194°
2026-05-06 01:23 -30.09663 -70.69021 31028 ft 479 kts 194°
2026-05-06 01:23 -30.15179 -70.69566 31035 ft 479 kts 194°
2026-05-06 01:24 -30.21814 -70.70226 31029 ft 478 kts 194°
2026-05-06 01:24 -30.29527 -70.70985 31028 ft 479 kts 194°
2026-05-06 01:25 -30.35048 -70.71538 31045 ft 480 kts 194°
2026-05-06 01:25 -30.41691 -70.72193 31029 ft 479 kts 194°
2026-05-06 01:26 -30.48337 -70.72854 31036 ft 480 kts 194°
2026-05-06 01:26 -30.54983 -70.73515 31031 ft 479 kts 194°
2026-05-06 01:27 -30.61587 -70.74171 31054 ft 480 kts 194°
2026-05-06 01:27 -30.68215 -70.74803 31033 ft 477 kts 194°
2026-05-06 01:28 -30.74825 -70.75454 31012 ft 479 kts 194°
2026-05-06 01:28 -30.81447 -70.76095 31026 ft 478 kts 194°
2026-05-06 01:29 -30.88082 -70.76742 31063 ft 478 kts 194°
2026-05-06 01:29 -30.94662 -70.77380 31024 ft 476 kts 194°
2026-05-06 01:30 -31.01264 -70.78033 31016 ft 477 kts 194°
2026-05-06 01:30 -31.07879 -70.78665 31029 ft 478 kts 194°
2026-05-06 01:31 -31.14509 -70.79325 31032 ft 478 kts 194°
2026-05-06 01:31 -31.21110 -70.79968 31049 ft 478 kts 194°
2026-05-06 01:32 -31.27729 -70.80611 31037 ft 474 kts 194°
2026-05-06 01:32 -31.34341 -70.81268 31042 ft 480 kts 194°
2026-05-06 01:33 -31.40978 -70.81918 31043 ft 478 kts 194°
2026-05-06 01:33 -31.47538 -70.82562 31035 ft 467 kts 194°
2026-05-06 01:34 -31.53972 -70.83209 31046 ft 470 kts 194°
2026-05-06 01:34 -31.60534 -70.83850 31028 ft 470 kts 194°
2026-05-06 01:35 -31.67100 -70.84506 31045 ft 474 kts 194°
2026-05-06 01:35 -31.73666 -70.85157 31034 ft 473 kts 193°
2026-05-06 01:36 -31.80276 -70.85394 31037 ft 484 kts 186°
2026-05-06 01:36 -31.86999 -70.85129 31038 ft 479 kts 189°
2026-05-06 01:37 -31.93668 -70.85230 31034 ft 482 kts 188°
2026-05-06 01:37 -32.00354 -70.85017 31023 ft 478 kts 187°
2026-05-06 01:38 -32.06956 -70.84990 31020 ft 477 kts 187°
2026-05-06 01:38 -32.13524 -70.84834 30746 ft 464 kts 187°
2026-05-06 01:39 -32.16721 -70.84766 30216 ft 456 kts 187°
2026-05-06 01:39 -32.19870 -70.84734 29627 ft 452 kts 187°
2026-05-06 01:39 -32.23009 -70.84690 29043 ft 449 kts 186°
2026-05-06 01:39 -32.26124 -70.84618 28458 ft 446 kts 186°
2026-05-06 01:40 -32.29174 -70.84567 27889 ft 443 kts 187°
2026-05-06 01:40 -32.32244 -70.84545 27315 ft 439 kts 187°
2026-05-06 01:40 -32.35292 -70.84521 26751 ft 437 kts 187°
2026-05-06 01:40 -32.38324 -70.84477 26221 ft 435 kts 187°
2026-05-06 01:41 -32.41347 -70.84432 25699 ft 432 kts 187°
2026-05-06 01:41 -32.44347 -70.84398 25331 ft 430 kts 187°
2026-05-06 01:41 -32.47339 -70.84369 24993 ft 430 kts 187°
2026-05-06 01:41 -32.50330 -70.84331 24664 ft 428 kts 186°
2026-05-06 01:42 -32.53262 -70.84286 24357 ft 427 kts 186°
2026-05-06 01:42 -32.56231 -70.84241 24058 ft 426 kts 186°
2026-05-06 01:42 -32.59193 -70.84203 23765 ft 425 kts 186°
2026-05-06 01:42 -32.62146 -70.84168 23443 ft 424 kts 187°
2026-05-06 01:43 -32.65160 -70.84145 23095 ft 445 kts 186°
2026-05-06 01:43 -32.68256 -70.84099 22769 ft 442 kts 185°
2026-05-06 01:43 -32.71325 -70.84027 22428 ft 440 kts 186°
2026-05-06 01:43 -32.74365 -70.83978 22118 ft 436 kts 186°
2026-05-06 01:44 -32.77351 -70.83949 21790 ft 433 kts 186°
2026-05-06 01:44 -32.80357 -70.83909 21457 ft 431 kts 185°
2026-05-06 01:44 -32.83350 -70.83858 21116 ft 429 kts 185°
2026-05-06 01:44 -32.86329 -70.83795 20804 ft 428 kts 185°
2026-05-06 01:45 -32.89296 -70.83759 20484 ft 425 kts 185°
2026-05-06 01:45 -32.92244 -70.83728 20167 ft 423 kts 184°
2026-05-06 01:45 -32.95175 -70.83469 19841 ft 424 kts 178°
2026-05-06 01:45 -32.98106 -70.82893 19547 ft 425 kts 174°
2026-05-06 01:46 -33.01017 -70.82314 19244 ft 423 kts 178°
2026-05-06 01:46 -33.03891 -70.82036 18942 ft 418 kts 184°
2026-05-06 01:46 -33.06790 -70.82027 18653 ft 415 kts 186°
2026-05-06 01:46 -33.09678 -70.81990 18351 ft 416 kts 183°
2026-05-06 01:47 -33.12555 -70.81757 18026 ft 414 kts 180°
2026-05-06 01:47 -33.15415 -70.81503 17685 ft 411 kts 182°
2026-05-06 01:47 -33.18264 -70.81368 17398 ft 406 kts 183°
2026-05-06 01:47 -33.21086 -70.81263 17121 ft 407 kts 182°
2026-05-06 01:48 -33.23922 -70.81101 16864 ft 409 kts 181°
2026-05-06 01:48 -33.26719 -70.80919 16593 ft 407 kts 182°
2026-05-06 01:48 -33.29538 -70.80788 16321 ft 404 kts 182°
2026-05-06 01:48 -33.32345 -70.80659 16055 ft 403 kts 182°
2026-05-06 01:49 -33.35143 -70.80513 15783 ft 402 kts 181°
2026-05-06 01:49 -33.37931 -70.80362 15508 ft 400 kts 181°
2026-05-06 01:49 -33.41043 -70.80188 15216 ft 398 kts 181°
2026-05-06 01:49 -33.43808 -70.80034 14956 ft 397 kts 181°
2026-05-06 01:50 -33.46565 -70.79880 14695 ft 396 kts 181°
2026-05-06 01:50 -33.49307 -70.79725 14450 ft 394 kts 181°
2026-05-06 01:50 -33.52041 -70.79571 14189 ft 393 kts 181°
2026-05-06 01:50 -33.54767 -70.79450 13931 ft 391 kts 181°
2026-05-06 01:51 -33.57445 -70.79308 13660 ft 390 kts 180°
2026-05-06 01:51 -33.60152 -70.79142 13375 ft 389 kts 180°
2026-05-06 01:51 -33.62851 -70.79013 13088 ft 387 kts 181°
2026-05-06 01:51 -33.65537 -70.78874 12800 ft 386 kts 180°
2026-05-06 01:52 -33.68214 -70.78711 12497 ft 385 kts 180°
2026-05-06 01:52 -33.70880 -70.78582 12201 ft 383 kts 180°
2026-05-06 01:52 -33.73538 -70.78442 11908 ft 381 kts 180°
2026-05-06 01:52 -33.76182 -70.78283 11619 ft 380 kts 180°
2026-05-06 01:53 -33.78781 -70.78161 11329 ft 378 kts 180°
2026-05-06 01:53 -33.81406 -70.78021 11038 ft 377 kts 179°
2026-05-06 01:53 -33.84021 -70.77862 10743 ft 375 kts 179°
2026-05-06 01:53 -33.86628 -70.77741 10466 ft 374 kts 179°
2026-05-06 01:54 -33.89222 -70.77599 10190 ft 371 kts 179°
2026-05-06 01:54 -33.91799 -70.77418 9908 ft 371 kts 178°
2026-05-06 01:54 -33.94376 -70.77222 9604 ft 370 kts 177°
2026-05-06 01:54 -33.96943 -70.77026 9297 ft 370 kts 177°
2026-05-06 01:55 -33.99507 -70.76829 8995 ft 368 kts 177°
2026-05-06 01:55 -34.02037 -70.76634 8678 ft 369 kts 176°
2026-05-06 01:55 -34.04576 -70.76437 8359 ft 364 kts 176°
2026-05-06 01:55 -34.07053 -70.76244 8038 ft 344 kts 176°
2026-05-06 01:56 -34.09346 -70.76066 7700 ft 318 kts 176°
2026-05-06 01:56 -34.11491 -70.75901 7371 ft 301 kts 176°
2026-05-06 01:56 -34.13565 -70.75741 7052 ft 298 kts 176°
2026-05-06 01:56 -33.88278 -70.78030 7043 ft 3376 kts 175°
2026-05-06 01:57 -33.56884 -70.80860 7071 ft 4641 kts 175°
2026-05-06 01:57 -33.25320 -70.81063 7075 ft 4549 kts 184°
2026-05-06 01:57 -32.97465 -70.81737 7035 ft 297 kts 178°
2026-05-06 01:57 -32.99507 -70.81678 6771 ft 290 kts 179°
2026-05-06 01:58 -33.01506 -70.81642 6465 ft 286 kts 182°
2026-05-06 01:58 -33.03464 -70.81904 6139 ft 281 kts 187°
2026-05-06 01:58 -33.05403 -70.82103 5828 ft 278 kts 181°
2026-05-06 01:58 -33.07317 -70.82052 5621 ft 272 kts 175°
2026-05-06 01:59 -33.09180 -70.81883 5461 ft 265 kts 175°
2026-05-06 01:59 -33.11002 -70.81738 5306 ft 260 kts 175°
2026-05-06 01:59 -33.12763 -70.81634 5164 ft 254 kts 178°
2026-05-06 01:59 -33.14515 -70.81582 5013 ft 250 kts 178°
2026-05-06 02:00 -33.16238 -70.81503 4869 ft 246 kts 177°
2026-05-06 02:00 -33.17934 -70.81395 4714 ft 242 kts 177°
2026-05-06 02:00 -33.19602 -70.81308 4568 ft 238 kts 178°
2026-05-06 02:00 -33.21248 -70.81228 4412 ft 235 kts 177°
2026-05-06 02:01 -33.22850 -70.81136 4258 ft 227 kts 177°
2026-05-06 02:01 -33.24410 -70.81060 4028 ft 223 kts 177°
2026-05-06 02:01 -33.25950 -70.80971 3793 ft 221 kts 177°
2026-05-06 02:01 -33.27479 -70.80894 3549 ft 219 kts 178°
2026-05-06 02:02 -33.28973 -70.80815 3270 ft 218 kts 177°
2026-05-06 02:02 -33.30493 -70.80731 2955 ft 218 kts 178°
2026-05-06 02:02 -33.31947 -70.80660 2649 ft 195 kts 178°
2026-05-06 02:02 -33.33185 -70.80586 2398 ft 163 kts 178°
2026-05-06 02:03 -33.34234 -70.80539 2150 ft 140 kts 178°
2026-05-06 02:03 -33.35218 -70.80493 1912 ft 150 kts 177°
2026-05-06 02:03 -33.36229 -70.80425 1805 ft 143 kts 178°
2026-05-06 02:03 -33.37238 -70.80373 1615 ft 144 kts 176°
2026-05-06 02:04 -33.38136 -70.80324 1575 ft 118 kts 176°
2026-05-06 02:04 -33.38779 -70.80287 1578 ft 70 kts 178°
2026-05-06 02:04 -33.39147 -70.80267 1577 ft 44 kts 174°
2026-05-06 02:04 -33.39361 -70.80176 1574 ft 27 kts 148°
2026-05-06 02:05 -33.39513 -70.80059 1569 ft 24 kts 150°
2026-05-06 02:05 -33.39664 -70.80034 1569 ft 23 kts 179°
2026-05-06 02:05 -33.39834 -70.80026 1570 ft 26 kts 176°
2026-05-06 02:05 -33.40019 -70.80012 1570 ft 28 kts 177°
2026-05-06 02:06 -33.40218 -70.79995 1570 ft 30 kts 176°
2026-05-06 02:06 -33.40421 -70.79978 1570 ft 26 kts 177°
2026-05-06 02:06 -33.40619 -70.79969 1569 ft 26 kts 178°
2026-05-06 02:06 -33.40784 -70.79957 1568 ft 16 kts 158°
2026-05-06 02:07 -33.40815 -70.79861 1568 ft 13 kts 88°
2026-05-06 02:07 -33.40812 -70.79748 1568 ft 11 kts 85°
2026-05-06 02:07 -33.40811 -70.79733 1568 ft 0 kts 84°
2026-05-06 02:08 -33.40810 -70.79721 1568 ft 7 kts 89°
2026-05-06 02:08 -33.40799 -70.79656 1568 ft 5 kts 10°
2026-05-06 02:08 -33.40758 -70.79684 1568 ft 8 kts 286°
2026-05-06 02:09 -33.40756 -70.79746 1568 ft 0 kts 267°